TimeCST,TemperatureF,Dew PointF,Humidity,Sea Level PressureIn,VisibilityMPH,Wind Direction,Wind SpeedMPH,Gust SpeedMPH,PrecipitationIn,Events,Conditions,WindDirDegrees,DateUTC
4:35 AM,51.8,41.0,67,30.01,10.0,SE,16.1,25.3,N/A,,Mostly Cloudy,140,2013-02-09 10:35:00
4:55 AM,51.8,42.8,71,30.01,10.0,SSE,17.3,24.2,N/A,,Scattered Clouds,150,2013-02-09 10:55:00
5:15 AM,51.8,42.8,71,29.98,10.0,SE,17.3,24.2,N/A,,Clear,130,2013-02-09 11:15:00
5:35 AM,51.8,42.8,71,29.98,10.0,SE,16.1,24.2,N/A,,Scattered Clouds,140,2013-02-09 11:35:00
5:55 AM,51.8,42.8,71,29.99,10.0,SE,12.7,19.6,N/A,,Scattered Clouds,140,2013-02-09 11:55:00
6:15 AM,51.8,42.8,71,29.99,10.0,SSE,10.4,18.4,N/A,,Mostly Cloudy,150,2013-02-09 12:15:00
6:35 AM,51.8,44.6,76,29.98,10.0,SE,18.4,25.3,N/A,,Overcast,140,2013-02-09 12:35:00
6:55 AM,51.8,44.6,76,29.95,10.0,SSE,21.9,31.1,N/A,,Mostly Cloudy,150,2013-02-09 12:55:00
7:15 AM,51.8,44.6,76,29.96,10.0,SSE,20.7,28.8,N/A,,Mostly Cloudy,150,2013-02-09 13:15:00
7:35 AM,51.8,44.6,76,29.95,10.0,SE,25.3,31.1,N/A,,Overcast,140,2013-02-09 13:35:00
7:55 AM,51.8,44.6,76,29.96,10.0,SSE,16.1,25.3,N/A,,Overcast,150,2013-02-09 13:55:00
8:15 AM,51.8,46.4,82,29.96,10.0,SSE,16.1,28.8,N/A,,Overcast,160,2013-02-09 14:15:00
8:35 AM,51.8,46.4,82,29.97,10.0,SSE,17.3,23.0,N/A,,Overcast,160,2013-02-09 14:35:00
8:55 AM,53.6,46.4,77,29.98,10.0,SSE,18.4,24.2,N/A,,Overcast,160,2013-02-09 14:55:00
9:15 AM,53.6,46.4,77,29.95,10.0,SSE,19.6,29.9,N/A,,Overcast,150,2013-02-09 15:15:00
9:35 AM,53.6,46.4,77,29.94,10.0,SSE,23.0,27.6,N/A,,Overcast,150,2013-02-09 15:35:00
9:55 AM,53.6,46.4,77,29.95,10.0,SSE,17.3,25.3,N/A,,Overcast,150,2013-02-09 15:55:00
10:15 AM,53.6,46.4,77,29.95,10.0,SSE,18.4,28.8,N/A,,Overcast,150,2013-02-09 16:15:00
10:35 AM,53.6,46.4,77,29.94,10.0,SSE,15.0,21.9,N/A,,Overcast,150,2013-02-09 16:35:00
10:55 AM,55.4,46.4,72,29.93,10.0,SSE,16.1,23.0,N/A,,Overcast,150,2013-02-09 16:55:00
11:15 AM,55.4,46.4,72,29.92,10.0,SSE,13.8,25.3,N/A,,Overcast,150,2013-02-09 17:15:00
11:35 AM,59.0,46.4,63,29.90,10.0,SE,15.0,24.2,N/A,,Overcast,140,2013-02-09 17:35:00
11:55 AM,59.0,46.4,63,29.91,10.0,SSE,12.7,16.1,N/A,,Overcast,150,2013-02-09 17:55:00
12:15 PM,59.0,46.4,63,29.89,10.0,SSE,18.4,25.3,N/A,,Overcast,150,2013-02-09 18:15:00
12:35 PM,59.0,46.4,63,29.88,10.0,SSE,12.7,20.7,N/A,,Overcast,160,2013-02-09 18:35:00
12:55 PM,59.0,46.4,63,29.86,10.0,SE,18.4,25.3,N/A,,Overcast,140,2013-02-09 18:55:00
1:15 PM,59.0,46.4,63,29.84,10.0,SE,20.7,28.8,N/A,,Overcast,140,2013-02-09 19:15:00
1:35 PM,59.0,46.4,63,29.83,10.0,SSE,16.1,24.2,N/A,,Overcast,160,2013-02-09 19:35:00
1:55 PM,59.0,48.2,67,29.82,10.0,SSE,19.6,28.8,N/A,,Overcast,160,2013-02-09 19:55:00
2:15 PM,59.0,48.2,67,29.81,10.0,SE,13.8,-,N/A,,Overcast,140,2013-02-09 20:15:00
2:35 PM,59.0,50.0,72,29.81,10.0,SSE,15.0,23.0,N/A,,Overcast,160,2013-02-09 20:35:00
2:55 PM,59.0,50.0,72,29.79,10.0,SSE,16.1,25.3,N/A,,Overcast,160,2013-02-09 20:55:00
3:15 PM,59.0,50.0,72,29.79,10.0,SSE,18.4,-,N/A,,Overcast,150,2013-02-09 21:15:00
3:35 PM,59.0,50.0,72,29.78,10.0,SSE,15.0,23.0,N/A,,Overcast,150,2013-02-09 21:35:00
3:55 PM,55.4,51.8,88,29.77,5.0,SE,16.1,21.9,N/A,,Haze,140,2013-02-09 21:55:00
4:15 PM,55.4,53.6,94,29.77,5.0,SSE,12.7,23.0,N/A,,Overcast,150,2013-02-09 22:15:00
4:35 PM,55.4,53.6,94,29.76,7.0,SE,16.1,19.6,N/A,,Overcast,140,2013-02-09 22:35:00
4:55 PM,55.4,53.6,94,29.76,10.0,SE,13.8,23.0,N/A,,Overcast,140,2013-02-09 22:55:00
5:15 PM,55.4,53.6,94,29.75,7.0,SSE,15.0,-,N/A,,Overcast,150,2013-02-09 23:15:00
5:35 PM,55.4,53.6,94,29.75,10.0,SE,15.0,20.7,N/A,,Overcast,140,2013-02-09 23:35:00
5:55 PM,57.2,53.6,88,29.75,10.0,SSE,15.0,23.0,N/A,,Overcast,150,2013-02-09 23:55:00
6:15 PM,57.2,53.6,88,29.74,10.0,SSE,15.0,20.7,N/A,,Overcast,150,2013-02-10 00:15:00
6:35 PM,57.2,55.4,94,29.74,10.0,SSE,12.7,-,N/A,,Overcast,150,2013-02-10 00:35:00
6:55 PM,57.2,55.4,94,29.74,10.0,SSE,17.3,23.0,N/A,,Overcast,150,2013-02-10 00:55:00
7:15 PM,59.0,55.4,88,29.73,10.0,SSE,17.3,25.3,N/A,,Overcast,150,2013-02-10 01:15:00
7:35 PM,59.0,55.4,88,29.72,10.0,SSE,17.3,25.3,N/A,,Overcast,150,2013-02-10 01:35:00
7:55 PM,59.0,55.4,88,29.71,10.0,SSE,21.9,31.1,N/A,,Overcast,150,2013-02-10 01:55:00
8:15 PM,59.0,55.4,88,29.71,10.0,SSE,24.2,29.9,N/A,,Overcast,150,2013-02-10 02:15:00
8:35 PM,59.0,55.4,88,29.71,10.0,SSE,17.3,32.2,N/A,,Overcast,160,2013-02-10 02:35:00
8:55 PM,59.0,55.4,88,29.71,10.0,SSE,20.7,27.6,N/A,,Overcast,160,2013-02-10 02:55:00
9:15 PM,59.0,55.4,88,29.70,10.0,SSE,18.4,26.5,N/A,,Overcast,160,2013-02-10 03:15:00
9:35 PM,60.8,57.2,88,29.69,10.0,SSE,16.1,36.8,N/A,,Overcast,160,2013-02-10 03:35:00
9:55 PM,60.8,57.2,88,29.68,10.0,SSE,17.3,27.6,N/A,,Overcast,160,2013-02-10 03:55:00
10:15 PM,60.8,59.0,94,29.68,10.0,South,15.0,21.9,N/A,,Overcast,170,2013-02-10 04:15:00
10:35 PM,60.8,59.0,94,29.68,10.0,SSE,16.1,27.6,N/A,,Overcast,160,2013-02-10 04:35:00
10:55 PM,60.8,59.0,94,29.68,10.0,South,15.0,24.2,N/A,,Overcast,170,2013-02-10 04:55:00
11:15 PM,60.8,59.0,94,29.66,10.0,SSE,19.6,31.1,N/A,,Mostly Cloudy,160,2013-02-10 05:15:00
11:35 PM,62.6,59.0,88,29.69,10.0,SSW,15.0,26.5,N/A,,Mostly Cloudy,200,2013-02-10 05:35:00
11:55 PM,62.6,59.0,88,29.72,7.0,SW,8.1,-,N/A,Thunderstorm,Thunderstorm,220,2013-02-10 05:55:00